Date String (YYYY-MM-DD hh:mm:ss) UTC,Instrument flags,absolute air pressure of the measurement (hPa),sample flow rate (lpm),inlet stack bypass flow (lpm),air temperature of the measurement (°C),ambient temperature measured by the external sensor (°C),aerosol sample conditioner tube jacket temperature (°C),OPC LED temperature (°C),internal box temperature (°C),relative humidity of the measurement (%),span deviation,mass concentration of particles derived from Lorenz-Mie calculation of OPC scattering (μg/m³),mass concentration of particles derived from Lorenz-Mie calculation of OPC scattering (μg/m³),mass concentration of particles derived from Lorenz-Mie calculation of OPC scattering (μg/m³)
DateTimeUTC,F1_M11,P_M11,Q1_M11,Q2_M11,T1_M11,T2_M11,T3_M11,T4_M11,T5_M11,U1_M11,ZSPAN_M11,X0_M11,X2_M11,X1_M11
2023-07-04 10:00:00,SystemResetWarning,0830.6,5.00,000.00,029.4,027.6,000.0,037.9,030.9,21.0,0000.0,0008.30,0004.33,0003.77
2023-07-04 10:01:00,SystemResetWarning,0830.6,5.00,000.00,029.4,027.8,000.0,037.9,030.9,21.1,0000.0,0008.10,0004.32,0003.77
2023-07-04 10:02:00,SystemResetWarning,0830.6,5.00,000.00,029.4,027.9,000.0,037.9,031.0,20.9,0000.0,0008.13,0004.32,0003.78
2023-07-04 10:03:00,SystemResetWarning,0830.6,5.01,000.00,029.4,028.0,000.0,038.0,031.0,20.7,0000.0,0008.16,0004.35,0003.78
2023-07-04 10:04:00,SystemResetWarning,0830.5,5.00,000.00,029.4,028.1,000.0,038.0,031.0,20.6,0000.0,0008.16,0004.31,0003.77
2023-07-04 10:05:00,SystemResetWarning,0830.6,5.00,000.00,029.5,028.2,000.0,038.0,031.1,20.5,0000.0,0008.08,0004.28,0003.75
2023-07-04 10:06:00,SystemResetWarning,0830.6,4.99,000.00,029.5,028.3,000.0,038.0,031.1,20.5,0000.0,0007.74,0004.24,0003.74
2023-07-04 10:07:00,SystemResetWarning,0830.6,4.99,000.00,029.5,028.3,000.0,038.0,031.2,20.4,0000.0,0007.71,0004.23,0003.74
2023-07-04 10:08:00,SystemResetWarning,0830.6,5.00,000.00,029.6,028.4,000.0,038.0,031.2,20.3,0000.0,0007.81,0004.24,0003.75
2023-07-04 10:09:00,SystemResetWarning,0830.7,5.00,000.00,029.6,028.4,000.0,038.1,031.2,20.2,0000.0,0007.73,0004.21,0003.75
2023-07-04 10:10:00,SystemResetWarning,0830.7,5.00,000.00,029.6,028.5,000.0,038.1,031.2,20.1,0000.0,0007.43,0004.18,0003.74
2023-07-04 10:11:00,SystemResetWarning,0830.7,5.00,000.00,029.6,028.5,000.0,038.1,031.3,19.8,0000.0,0007.38,0004.17,0003.74
2023-07-04 10:12:00,SystemResetWarning,0830.7,4.99,000.00,029.6,027.5,000.0,038.0,031.2,19.8,0000.0,0007.37,0004.16,0003.72
2023-07-04 10:13:00,SystemResetWarning,0830.7,5.01,000.00,029.6,025.6,000.0,037.9,031.0,19.8,0000.0,0007.40,0004.16,0003.70
2023-07-04 10:14:00,SystemResetWarning,0830.7,5.01,000.00,029.5,025.2,000.0,037.8,030.7,20.5,0000.0,0007.22,0004.11,0003.69
2023-07-04 10:15:00,SystemResetWarning,0830.7,5.01,000.00,029.4,025.4,000.0,037.9,030.5,20.8,0000.0,0007.20,0004.09,0003.68
2023-07-04 10:16:00,SystemResetWarning,0830.7,5.00,000.00,029.3,025.8,000.0,037.9,030.5,20.9,0000.0,0007.20,0004.10,0003.68
2023-07-04 10:17:00,SystemResetWarning,0830.8,5.00,000.00,029.3,026.2,000.0,037.9,030.6,20.9,0000.0,0007.22,0004.10,0003.68
2023-07-04 10:18:00,SystemResetWarning,0830.8,5.00,000.00,029.2,026.6,000.0,037.9,030.7,20.9,0000.0,0007.20,0004.10,0003.68
2023-07-04 10:19:00,SystemResetWarning,0830.8,4.99,000.00,029.3,026.9,000.0,037.9,030.7,21.0,0000.0,0006.98,0004.08,0003.68
2023-07-04 10:20:00,SystemResetWarning,0830.8,5.01,000.00,029.3,027.1,000.0,037.9,030.8,21.0,0000.0,0006.82,0004.09,0003.68
2023-07-04 10:21:00,SystemResetWarning,0830.8,5.00,000.00,029.3,027.4,000.0,037.9,030.8,20.9,0000.0,0007.56,0004.11,0003.69
2023-07-04 10:22:00,SystemResetWarning,0830.8,5.00,000.00,029.3,027.6,000.0,037.9,030.8,20.7,0000.0,0007.91,0004.11,0003.68
2023-07-04 10:23:00,SystemResetWarning,0830.8,5.00,000.00,029.3,027.7,000.0,037.9,030.9,20.6,0000.0,0007.88,0004.09,0003.68
2023-07-04 10:24:00,SystemResetWarning,0830.8,5.00,000.00,029.3,027.8,000.0,037.9,030.9,20.4,0000.0,0007.83,0004.09,0003.69
2023-07-04 10:25:00,SystemResetWarning,0830.8,5.00,000.00,029.3,027.9,000.0,037.9,030.9,20.3,0000.0,0007.89,0004.09,0003.69
2023-07-04 10:26:00,SystemResetWarning,0830.8,5.00,000.00,029.4,028.0,000.0,037.9,031.0,20.3,0000.0,0007.88,0004.09,0003.70
2023-07-04 10:27:00,SystemResetWarning,0830.8,5.00,000.00,029.4,028.1,000.0,037.9,031.0,20.1,0000.0,0007.80,0004.09,0003.70
2023-07-04 10:28:00,SystemResetWarning,0830.8,5.00,000.00,029.4,028.2,000.0,037.9,031.0,19.9,0000.0,0007.79,0004.08,0003.71
2023-07-04 10:29:00,SystemResetWarning,0830.9,5.00,000.00,029.5,028.2,000.0,038.0,031.1,19.9,0000.0,0007.81,0004.09,0003.71
2023-07-04 10:30:00,SystemResetWarning,0830.9,5.00,000.00,029.5,028.3,000.0,038.0,031.1,19.7,0000.0,0007.83,0004.09,0003.72
2023-07-04 10:31:00,SystemResetWarning,0830.9,5.00,000.00,029.5,028.3,000.0,038.0,031.1,19.6,0000.0,0008.00,0004.09,0003.72
2023-07-04 10:32:00,SystemResetWarning,0830.8,5.00,000.00,029.5,028.4,000.0,038.0,031.1,19.5,0000.0,0007.75,0004.07,0003.70
2023-07-04 10:33:00,SystemResetWarning,0830.9,5.00,000.00,029.6,028.4,000.0,038.0,031.2,19.5,0000.0,0007.34,0004.07,0003.70
2023-07-04 10:34:00,SystemResetWarning,0830.9,5.00,000.00,029.6,028.5,000.0,038.0,031.2,19.4,0000.0,0007.48,0004.09,0003.71
2023-07-04 10:35:00,SystemResetWarning,0830.9,5.00,000.00,029.6,028.5,000.0,038.1,031.2,19.4,0000.0,0007.61,0004.10,0003.71
2023-07-04 10:36:00,SystemResetWarning,0830.9,5.00,000.00,029.6,028.5,000.0,038.1,031.3,19.4,0000.0,0007.62,0004.09,0003.70
2023-07-04 10:37:00,SystemResetWarning,0830.9,5.00,000.00,029.7,028.6,000.0,038.1,031.3,19.6,0000.0,0007.48,0004.07,0003.69
2023-07-04 10:38:00,SystemResetWarning,0830.9,5.00,000.00,029.7,028.6,000.0,038.1,031.3,19.4,0000.0,0007.48,0004.08,0003.69
2023-07-04 10:39:00,SystemResetWarning,0830.9,4.99,000.00,029.7,028.0,000.0,038.1,031.3,19.3,0000.0,0007.42,0004.06,0003.69
2023-07-04 10:40:00,SystemResetWarning,0830.8,5.01,000.00,029.7,025.9,000.0,038.0,031.1,19.3,0000.0,0007.35,0004.04,0003.68
2023-07-04 10:41:00,SystemResetWarning,0830.8,5.00,000.00,029.6,025.2,000.0,037.9,030.9,19.4,0000.0,0007.50,0004.04,0003.68
2023-07-04 10:42:00,SystemResetWarning,0830.8,5.00,000.00,029.5,025.4,000.0,037.9,030.6,19.5,0000.0,0007.43,0004.04,0003.67
2023-07-04 10:43:00,SystemResetWarning,0830.8,5.02,000.00,029.4,025.7,000.0,037.9,030.6,19.6,0000.0,0007.32,0004.05,0003.68
2023-07-04 10:44:00,SystemResetWarning,0830.8,5.00,000.00,029.3,026.2,000.0,037.9,030.6,19.6,0000.0,0007.92,0004.06,0003.68
2023-07-04 10:45:00,SystemResetWarning,0830.7,5.00,000.00,029.3,026.5,000.0,037.9,030.7,19.6,0000.0,0007.90,0004.04,0003.67
2023-07-04 10:46:00,SystemResetWarning,0830.7,4.99,000.00,029.3,026.9,000.0,037.9,030.8,19.6,0000.0,0007.84,0004.05,0003.68
2023-07-04 10:47:00,SystemResetWarning,0830.7,5.00,000.00,029.3,027.1,000.0,037.9,030.8,19.6,0000.0,0007.68,0004.03,0003.69
2023-07-04 10:48:00,SystemResetWarning,0830.7,5.00,000.00,029.3,027.3,000.0,037.9,030.8,19.6,0000.0,0007.61,0004.02,0003.70
2023-07-04 10:49:00,SystemResetWarning,0830.7,5.00,000.00,029.3,027.5,000.0,037.9,030.9,19.5,0000.0,0007.68,0004.03,0003.69
2023-07-04 10:50:00,SystemResetWarning,0830.6,5.00,000.00,029.3,027.7,000.0,037.9,030.9,19.6,0000.0,0007.80,0004.03,0003.69
2023-07-04 10:51:00,SystemResetWarning,0830.7,5.00,000.00,029.4,027.8,000.0,037.9,031.0,19.7,0000.0,0007.81,0004.02,0003.67
2023-07-04 10:52:00,SystemResetWarning,0830.7,5.00,000.00,029.4,027.9,000.0,037.9,031.0,19.8,0000.0,0007.67,0004.01,0003.67
2023-07-04 10:53:00,SystemResetWarning,0830.7,5.00,000.00,029.4,028.0,000.0,038.0,031.0,20.0,0000.0,0007.63,0004.00,0003.66
2023-07-04 10:54:00,SystemResetWarning,0830.8,5.00,000.00,029.4,028.1,000.0,038.0,031.0,20.0,0000.0,0007.53,0004.00,0003.67
2023-07-04 10:55:00,SystemResetWarning,0830.8,4.99,000.00,029.5,028.2,000.0,038.0,031.0,19.8,0000.0,0006.82,0004.01,0003.68
2023-07-04 10:56:00,SystemResetWarning,0830.8,4.99,000.00,029.5,028.2,000.0,038.0,031.1,19.7,0000.0,0006.43,0004.03,0003.68
2023-07-04 10:57:00,SystemResetWarning,0830.8,5.00,000.00,029.5,028.3,000.0,038.0,031.1,19.5,0000.0,0006.34,0004.02,0003.67
2023-07-04 10:58:00,SystemResetWarning,0830.7,5.00,000.00,029.5,028.3,000.0,038.0,031.1,19.4,0000.0,0006.37,0004.03,0003.68
2023-07-04 10:59:00,SystemResetWarning,0830.8,5.00,000.00,029.6,028.3,000.0,038.1,031.2,19.2,0000.0,0006.54,0004.05,0003.68
